Simultaneous Nadir Overpasses (SNOs) Predictions

Prediction of SNOs between AQUA and METOP-C Satellite Orbit:

Table of predicted SNOs for the next 14.0 days since TLE Epoch: 3/13/2020
Index Date (AQUA) Time (AQUA) Lat,Lon (AQUA) SZA (AQUA ) Date (METOP-C) Time (METOP-C) Lat,Lon (METOP-C) SZA (METOP-C ) Distance(km) Time Diff (sec)
1 03/14/2020 11:23:50 -73.71,-176.43 103.99 03/14/2020 11:23:14 -73.70,-176.54 103.99 3.66 36
2 03/14/2020 12:13:19 73.80, -8.99 76.10 03/14/2020 12:13:52 73.81, -8.96 76.10 1.29 33
3 03/17/2020 06:58:07 -73.75,-110.10 105.06 03/17/2020 06:57:37 -73.73,-110.07 105.08 3.03 30
4 03/17/2020 07:47:35 73.79, 57.46 74.97 03/17/2020 07:48:16 73.79, 57.40 74.96 1.85 41
5 03/20/2020 02:32:23 -73.75, -43.66 106.18 03/20/2020 02:32:00 -73.76, -43.60 106.18 1.82 23
6 03/20/2020 03:21:51 73.79, 123.90 73.85 03/20/2020 03:22:39 73.82, 123.88 73.87 2.94 48
7 03/22/2020 21:17:01 73.17,-143.64 72.10 03/22/2020 21:15:54 73.11,-145.98 72.14 75.68 67
8 03/22/2020 22:06:38 -73.76, 22.77 107.30 03/22/2020 22:06:23 -73.73, 22.75 107.32 2.96 15
9 03/22/2020 22:56:06 73.80,-169.68 72.74 03/22/2020 22:57:02 73.80,-169.77 72.73 2.83 56
10 03/25/2020 16:51:22 73.45, -77.77 71.27 03/25/2020 16:50:12 73.39, -78.96 71.28 38.19 70
11 03/25/2020 17:40:54 -73.77, 89.18 108.40 03/25/2020 17:40:46 -73.76, 89.22 108.41 1.90 8
12 03/25/2020 18:30:22 73.81,-103.27 71.63 03/25/2020 18:31:25 73.82,-103.30 71.64 2.00 63




NCC Satellite Simultaneous Nadir Overpasses (SNOs) Prediction Service
